THOR AGENA B DEB, 511

Orbit data source: Space-Track

THOR AGENA B DEB, 511 is space debris in LEO originally from a launch on Sat, 29 Sep 1962 UTC launched from the Air Force Western Test Range (AFWTR). Debris objects in space refer to the collection of defunct objects orbiting the Earth. Examples of debris include non-operational satellites, rocket bodies, and fragments generated from explosions, collisions, or faulty payload assembly.

Loading next visibility...
THOR AGENA B DEB details
Identifier
511, 1962-049D
Orbit
LEO
Last TLE update11 hours ago
Origin
Flag of USDRTE (US)
ManufacturerUnknown
MissionSpacecraft
Bus & MotorUnknown
MassUnknown
Launch date (UTC)
1962-09-29 (62 years ago)
Launch vehicleUnknown
Launch site
Air Force Western Test Range (AFWTR)
Object type
Payload
Rocket body
Debris
Shape & HBRUnknown
Radar Cross SectionSmall (<0.1 m²)

Expand to show TLE details & history

TLE from 11 hours ago
0 THOR AGENA B DEB
1 00511U 62049D   25014.91164116  .00000095  00000-0  10102-3 0  9990
2 00511  80.4297 345.8995 0030676 229.2259 159.9676 13.68477212108693
Epoch: 2025-01-14T21:52Z
Definitive object data (Epoch: 2025-01-14T21:52:45.796Z)
Latitude28.91289°
Longitude-91.58716°
Altitude1,029.828 km
Speed7.329 km/s
True Right ascension23h 24m 51s
True Declination28° 46' 23"
Sunlit
Object was in daylight at TLE epoch
Visualization TLE readout
Latitude30.68234°
Longitude-91.62634°
Altitude1,030.485 km
Speed7.329 km/s
Apparent Right ascension22h 24m 09s
Apparent Declination-1° 38' 47"
Sunlit
Object is in daylight
Visualization observer readout
Local Sidereal Time09:04:41
Azimuth329.692° NNW
Elevation-47.686°
Doppler factor1
Orbital elements
Apogee altitude1,024.953 km
Perigee altitude979.673 km
Semi-major axis7,380.45 km
Eccentricity0.0030676
Inclination80.4297°
RAAN345.8995°
Arg. of periapsis229.2259°
True anomaly160.08758°
Mean anomaly159.9676°
Eccentric anomaly160.02763°
Mean motion3.42309 °/min
BSTAR0.00010102
Orbital period105.17 mins
Loading maneuver chart data...
Loading historical data...
Loading historical data...
Loading historical data...
Loading historical data...
Loading historical data...
Loading historical data...
Loading historical data...
Other satellites on launch #49 in the year 1962 (1962-09-29 UTC)

THOR AGENA B DEB Visibility forecast

Observer location: undefined°, undefined

Span
Click to sort rows by Start time (UTC) header in descending order
Start Az.
Max El. time (UTC)
Max El. Az.
Max El.
End time (UTC)
End Az.
10 mins2025-01-15 08:50:58.913Z9.938° NNE2025-01-15 08:55:58.913Z70.091° E30.106°2025-01-15 09:00:58.913Z132.569° SE
9 mins2025-01-15 10:37:58.913Z324.883° NNW2025-01-15 10:41:58.913Z275.892° WNW29.36°2025-01-15 10:46:58.913Z211.574° SW
11 mins2025-01-15 22:24:58.913Z172.886° S2025-01-15 22:29:58.913Z90.665° ESE41.996°2025-01-15 22:35:58.913Z17.131° NNE
7 mins2025-01-16 00:13:58.913Z263.087° W2025-01-16 00:16:58.913Z297.172° NW19.228°2025-01-16 00:20:58.913Z337.711° N
|